Date,TemperatureHighF,TemperatureAvgF,TemperatureLowF,DewpointHighF,DewpointAvgF,DewpointLowF,HumidityHigh,HumidityAvg,HumidityLow,PressureMaxIn,PressureMinIn,WindSpeedMaxMPH,WindSpeedAvgMPH,GustSpeedMaxMPH,PrecipitationSumIn
2013-1-1,75.0,63.5,54.0,60.0,56.9,53.0,96,81,56,30.25,30.07,2,0,3,0.00
2013-1-2,76.0,67.2,59.0,66.0,61.8,56.0,93,83,65,30.09,30.00,0,0,0,0.00
2013-1-3,70.0,64.6,59.0,66.0,62.3,55.0,97,92,83,30.21,30.06,0,0,4,0.00
2013-1-4,59.0,56.5,54.0,58.0,55.8,53.0,99,98,97,30.31,30.18,0,0,0,0.00
2013-1-5,71.0,60.6,53.0,63.0,56.6,51.0,97,87,74,30.33,30.22,0,0,0,0.00
2013-1-6,76.0,66.4,60.0,67.0,62.5,58.0,97,88,70,30.25,30.08,0,0,0,0.00
2013-1-7,68.0,61.5,56.0,62.0,57.9,52.0,97,89,72,30.25,30.15,4,0,0,0.00
2013-1-8,76.0,68.2,62.0,70.0,65.9,61.0,100,93,78,30.26,30.16,0,0,0,0.00
2013-1-9,77.0,70.4,66.0,73.0,68.6,65.0,99,94,83,30.34,30.23,0,0,0,0.00
2013-1-10,79.0,70.5,66.0,69.0,66.1,64.0,99,87,68,30.34,30.25,3,0,6,0.00
2013-1-11,78.0,70.0,63.0,68.0,64.8,62.0,97,85,63,30.30,30.19,2,0,0,0.00
2013-1-12,78.0,69.2,62.0,67.0,64.1,61.0,98,85,60,30.23,30.12,1,0,0,0.00
2013-1-13,78.0,69.3,62.0,66.0,63.7,61.0,97,83,57,30.20,30.10,3,0,0,0.00
2013-1-14,80.0,70.1,63.0,67.0,64.5,62.0,97,83,61,30.22,30.14,0,0,0,0.00
2013-1-15,80.0,70.7,64.0,68.0,65.3,63.0,96,83,62,30.18,30.08,1,0,0,0.00
2013-1-16,80.0,70.2,63.0,66.0,62.6,60.0,96,78,51,30.13,30.03,0,0,0,0.00
2013-1-17,75.0,64.2,54.0,67.0,59.0,46.0,96,84,69,30.13,29.98,8,1,12,0.00
2013-1-18,64.0,54.0,43.0,58.0,46.9,36.0,97,77,68,30.31,30.13,10,0,15,0.00
2013-1-19,70.0,61.9,55.0,61.0,56.7,52.0,94,83,71,30.32,30.17,5,0,3,0.00
2013-1-20,69.0,62.6,59.0,63.0,58.5,54.0,97,87,72,30.21,30.08,0,0,0,0.00
2013-1-21,71.0,64.6,60.0,61.0,58.0,56.0,91,80,67,30.12,30.02,0,0,0,0.00
2013-1-22,62.0,57.8,52.0,56.0,45.2,36.0,85,64,40,30.30,30.09,1,0,1,0.00
2013-1-23,67.0,54.8,45.0,47.0,40.5,32.0,83,61,28,30.39,30.29,0,0,4,0.00
2013-1-24,72.0,58.3,47.0,54.0,48.1,44.0,91,72,44,30.35,30.24,1,0,0,0.00
2013-1-25,75.0,61.8,52.0,56.0,52.0,47.0,96,73,43,30.33,30.19,0,0,0,0.00
2013-1-26,75.0,61.9,52.0,57.0,53.7,49.0,96,76,50,30.30,30.19,0,0,0,0.00
2013-1-27,76.0,63.9,55.0,63.0,58.2,54.0,97,83,55,30.34,30.25,3,0,5,0.00
2013-1-28,76.0,68.9,63.0,65.0,63.2,61.0,95,82,66,30.37,30.27,4,0,9,0.00
2013-1-29,82.0,70.7,64.0,68.0,65.0,63.0,97,83,57,30.29,30.13,3,0,11,0.00
2013-1-30,83.0,73.1,65.0,66.0,64.3,61.0,95,75,53,30.15,29.91,6,1,7,0.00
2013-1-31,71.0,58.6,49.0,66.0,38.7,30.0,84,50,30,30.26,29.92,2,0,6,0.00
2013-2-1,69.0,53.5,41.0,40.0,32.8,24.0,76,50,19,30.38,30.25,1,0,0,0.00
2013-2-2,71.0,55.3,43.0,47.0,41.4,37.0,83,62,31,30.34,30.17,1,0,4,0.00
2013-2-3,69.0,56.5,45.0,51.0,43.7,38.0,90,64,37,30.21,30.08,5,0,12,0.00
2013-2-4,69.0,55.8,45.0,45.0,41.2,35.0,92,62,29,30.17,30.06,0,0,3,0.00
2013-2-5,73.0,59.2,46.0,53.0,47.0,41.0,85,66,44,30.13,30.02,2,0,0,0.00
2013-2-6,73.0,66.2,59.0,64.0,58.4,53.0,88,76,61,30.14,30.05,0,0,0,0.00
2013-2-7,79.0,70.5,63.0,66.0,62.0,58.0,95,76,56,30.11,29.90,4,0,9,0.00
2013-2-8,78.0,69.2,63.0,65.0,59.1,54.0,90,72,46,30.11,29.89,6,0,3,0.00
2013-2-9,74.0,62.4,55.0,59.0,55.0,53.0,93,78,57,30.24,30.10,1,0,3,0.00
2013-2-10,76.0,65.6,57.0,61.0,56.7,53.0,88,74,56,30.30,30.19,5,1,13,0.00
2013-2-11,81.0,69.8,60.0,64.0,60.5,58.0,95,74,49,30.24,30.10,3,0,6,0.00
2013-2-12,82.0,72.9,64.0,67.0,63.6,61.0,95,74,50,30.13,29.95,1,0,4,0.00
2013-2-13,82.0,71.9,63.0,69.0,66.4,61.0,96,84,55,29.99,29.84,7,0,13,0.00
2013-2-14,65.0,62.2,57.0,63.0,59.8,56.0,97,92,80,30.07,29.94,0,0,0,0.00
2013-2-15,68.0,58.2,53.0,58.0,53.7,52.0,97,86,58,30.11,29.98,0,0,0,0.00
2013-2-16,65.0,56.6,50.0,55.0,44.3,28.0,95,67,33,30.14,29.92,12,1,12,0.00
2013-2-17,54.0,45.5,37.0,31.0,21.7,12.0,66,41,19,30.37,30.14,10,0,15,0.00
2013-2-18,67.0,50.8,36.0,47.0,38.5,27.0,82,64,46,30.40,30.24,4,0,10,0.00
2013-2-19,75.0,62.8,50.0,57.0,51.4,46.0,93,69,45,30.25,30.07,3,0,6,0.00
2013-2-20,73.0,64.0,60.0,59.0,55.0,51.0,90,73,56,30.16,30.04,1,0,3,0.00
2013-2-21,80.0,67.7,58.0,65.0,58.7,52.0,86,74,48,30.14,30.02,1,0,0,0.00
2013-2-22,84.0,72.7,65.0,69.0,65.2,60.0,96,79,45,30.11,30.01,3,0,5,0.00
2013-2-23,84.0,75.4,70.0,69.0,66.2,61.0,93,75,46,30.04,29.89,5,0,11,0.00
2013-2-24,73.0,69.8,66.0,71.0,67.6,64.0,97,92,86,29.99,29.89,0,0,4,0.00
2013-2-25,82.0,71.6,65.0,71.0,66.1,61.0,98,85,50,29.97,29.79,3,0,0,0.00
2013-2-26,74.0,70.3,66.0,71.0,67.3,61.0,98,91,75,29.89,29.76,3,0,9,0.00
2013-2-27,73.0,65.0,58.0,63.0,55.6,50.0,92,73,50,29.99,29.88,1,0,4,0.00
2013-2-28,72.0,60.8,52.0,52.0,49.2,43.0,89,68,37,30.02,29.89,7,0,7,0.00
2013-3-1,64.0,55.7,50.0,48.0,41.4,33.0,83,61,34,30.03,29.93,4,0,6,0.00
2013-3-2,57.0,51.4,46.0,39.0,34.2,27.0,70,53,31,30.06,29.96,7,1,12,0.00
2013-3-3,52.0,44.9,38.0,36.0,32.3,30.0,78,62,46,30.18,30.02,7,1,9,0.00
2013-3-4,65.0,50.3,38.0,40.0,32.5,25.0,86,55,25,30.26,30.14,1,0,6,0.00
2013-3-5,75.0,60.2,47.0,57.0,43.7,39.0,86,58,32,30.21,30.03,6,0,10,0.00
2013-3-6,67.0,59.4,50.0,61.0,40.6,26.0,92,54,24,30.16,29.93,10,1,9,0.00
2013-3-7,67.0,53.0,41.0,47.0,39.8,34.0,83,62,37,30.24,30.14,2,0,0,0.00
2013-3-8,72.0,57.2,45.0,48.0,43.3,27.0,90,65,19,30.25,30.14,3,0,9,0.00
2013-3-9,74.0,59.8,48.0,53.0,49.2,45.0,90,70,44,30.26,30.17,5,0,1,0.00
2013-3-10,79.0,64.7,54.0,57.0,54.2,51.0,92,71,43,30.22,30.11,7,1,9,0.00
2013-3-11,77.0,66.6,57.0,61.0,57.3,54.0,92,73,53,30.15,29.94,3,0,6,0.00
2013-3-12,70.0,66.0,59.0,67.0,62.2,57.0,97,88,75,30.04,29.89,3,0,7,0.00
2013-3-13,73.0,60.5,50.0,57.0,42.9,28.0,95,59,19,30.19,30.04,6,0,13,0.00
2013-3-14,66.0,55.0,45.0,49.0,36.6,26.0,75,53,22,30.29,30.18,2,0,7,0.00
2013-3-15,73.0,56.6,44.0,44.0,39.0,32.0,91,57,26,30.32,30.16,0,0,3,0.00
2013-3-16,78.0,63.2,51.0,50.0,43.2,38.0,83,54,24,30.21,30.06,1,0,0,0.00
2013-3-17,75.0,64.7,53.0,60.0,51.5,42.0,87,64,43,30.17,30.02,4,0,10,0.00
2013-3-18,77.0,70.8,65.0,65.0,61.8,58.0,86,74,59,30.09,29.93,3,0,5,0.00
2013-3-19,85.0,72.4,65.0,65.0,61.4,57.0,93,71,40,30.05,29.91,1,0,10,0.00
2013-3-20,74.0,67.1,59.0,68.0,61.9,57.0,97,84,67,30.01,29.82,4,0,11,0.00
2013-3-21,70.0,59.1,50.0,58.0,43.2,27.0,98,63,20,29.99,29.88,2,0,3,0.00
2013-3-22,77.0,61.2,49.0,62.0,50.3,44.0,94,70,39,30.05,29.93,1,0,4,0.00
2013-3-23,81.0,71.1,64.0,72.0,66.0,62.0,98,85,63,30.01,29.79,4,0,6,0.00
2013-3-24,80.0,71.7,65.0,73.0,68.3,64.0,96,89,68,29.89,29.65,11,1,11,0.00
2013-3-25,71.0,64.3,56.0,67.0,46.5,28.0,94,58,21,30.06,29.73,4,0,8,0.00
2013-3-26,59.0,52.9,46.0,39.0,29.9,22.0,61,42,25,30.26,30.05,5,1,9,0.00
2013-3-27,63.0,51.2,42.0,42.0,33.2,29.0,74,53,27,30.33,30.22,1,0,0,0.00
2013-3-28,71.0,55.8,43.0,46.0,38.2,29.0,86,57,22,30.32,30.20,1,0,1,0.00
2013-3-29,74.0,59.9,48.0,47.0,40.4,34.0,85,54,23,30.36,30.21,0,0,0,0.00
2013-3-30,79.0,64.5,52.0,53.0,48.4,44.0,88,59,31,30.29,30.14,3,0,4,0.00
2013-3-31,82.0,71.2,64.0,56.0,51.2,-99.9,73,53,32,30.20,30.01,5,0,7,0.00
2013-4-1,82.0,72.9,66.0,64.0,60.7,55.0,86,67,45,30.05,29.94,7,1,7,0.00
2013-4-2,83.0,71.5,64.0,64.0,57.4,46.0,93,66,29,30.12,30.02,3,0,7,0.00
2013-4-3,80.0,71.0,63.0,68.0,62.3,56.0,95,76,49,30.11,29.99,8,0,5,0.00
2013-4-4,73.0,69.6,68.0,69.0,67.1,63.0,97,92,81,30.06,29.88,5,0,6,0.00
2013-4-5,74.0,67.3,59.0,67.0,62.4,55.0,95,84,59,30.02,29.83,4,0,9,0.00
2013-4-6,75.0,64.1,54.0,60.0,56.2,52.0,95,77,56,30.17,30.01,3,0,7,0.00
2013-4-7,80.0,67.8,58.0,61.0,59.0,57.0,96,75,47,30.19,30.09,4,0,4,0.00
2013-4-8,85.0,71.3,61.0,65.0,61.5,59.0,95,74,47,30.17,30.08,8,0,3,0.00
2013-4-9,86.0,73.4,65.0,67.0,62.2,53.0,95,71,41,30.20,30.10,5,0,5,0.00
2013-4-10,85.0,73.0,63.0,70.0,64.1,60.0,95,75,53,30.16,30.02,3,0,10,0.00
2013-4-11,89.0,77.8,71.0,72.0,70.2,68.0,95,79,51,30.03,29.85,4,0,9,0.00
2013-4-12,83.0,77.8,74.0,73.0,70.4,68.0,91,78,61,29.93,29.83,4,1,11,0.00
2013-4-13,82.0,75.0,70.0,71.0,66.5,58.0,94,76,55,30.02,29.90,1,0,0,0.00
2013-4-14,86.0,73.4,66.0,75.0,67.1,61.0,98,81,63,30.02,29.84,17,0,18,0.00
2013-4-15,85.0,73.2,65.0,67.0,64.9,63.0,98,78,52,30.11,29.92,2,0,3,0.00
2013-4-16,86.0,75.8,69.0,71.0,67.6,65.0,95,77,54,30.19,30.08,6,0,9,0.00
2013-4-17,74.0,69.3,67.0,68.0,66.6,65.0,96,91,78,30.18,30.13,2,0,0,0.00
2013-5-8,79.0,79.0,79.0,58.0,57.8,57.0,49,48,47,30.10,30.10,0,0,2,0.00